Location: Bon Vouloir
(50.4635°N, 4.0437°E)
Time: 11:18:10
(UTC+00:00)

Daily predictions for brighter satellites

Satellite Brightness Start Highest point End
(mag) Time Altitude Azimuth Time Altitude Azimuth Time Altitude Azimuth
Cosmos 1980 Rocket 2.9 19:52:46 10° NW 19:58:19 54° WSW 20:03:49 10° S
COSMOS 2406 4.0 19:53:26 10° SSE 19:58:22 30° ESE 20:03:18 10° NE
Cosmos 1782 2.6 19:56:33 10° S 20:00:00 57° E 20:03:29 10° NNE
Okean-O 3.1 19:56:07 10° SE 20:00:18 47° ENE 20:04:30 10° N
CZ-4 R/B 2.2 19:57:10 10° S 20:00:39 45° W 20:04:10 10° NNW
MetOp-B 4.2 19:55:34 10° SSE 20:00:55 88° WSW 20:06:20 10° NNW
Cosmos 724 4.4 19:55:17 10° SW 20:01:18 86° SE 20:07:15 10° NE
Ariane Rocket 4.3 19:58:59 10° ESE 20:03:08 26° ENE 20:07:18 10° N
Cosmos 1758 Rocket 4.3 20:01:59 10° N 20:06:05 37° ENE 20:10:12 10° SE
SPOT 3 Rocket 4.4 20:01:53 10° SE 20:06:29 34° ENE 20:11:05 10° N
Spot 2 Rocket 3.6 20:03:18 10° SSE 20:08:16 64° ENE 20:13:16 10° N
Cosmos 1725 Rocket 4.0 20:03:46 10° S 20:10:03 86° E 20:16:19 10° N
Cosmos 2333 Rocket 2.8 20:04:59 10° NNW 20:10:31 49° NE 20:16:03 10° SE
ATLAS 3B R/B 4.4 20:04:23 10° NW 20:10:58 32° WSW 20:17:13 10° S
ERS-1 Rocket 3.5 20:09:24 10° S 20:14:20 59° W 20:19:19 10° NNW
Tsikada Rocket 4.0 20:11:46 10° N 20:17:58 82° E 20:24:07 10° SSE
Cosmos 2360 Rocket 3.1 20:19:03 10° NNW 20:24:22 39° NE 20:29:39 10° ESE
Cosmos 2016 Rocket 4.1 20:18:24 10° S 20:24:40 83° W 20:30:52 10° N
Cosmos 1461 3.3 20:22:48 10° S 20:26:04 30° ESE 20:29:20 10° ENE
CZ-4B R/B 3.8 20:21:52 10° S 20:27:27 59° WSW 20:33:00 10° NNW
CZ-4C R/B 3.1 20:25:23 10° WSW 20:29:43 48° NW 20:35:19 10° NE
CZ-4B R/B 4.0 20:25:37 11° SE 20:29:53 42° ENE 20:34:27 10° N
Cosmos 1602 Rocket 4.3 20:26:17 10° N 20:30:19 37° ENE 20:33:49 13° SE
Cosmos 1992 Rocket 4.0 20:25:43 10° S 20:30:52 66° ESE 20:36:03 10° NNE
YAOGAN 11 4.2 20:29:32 10° NNE 20:33:57 62° ESE 20:38:22 10° S
ISS -3.6 20:33:08 10° W 20:36:29 75° N 20:39:51 10° E
Cosmos 2219 Rocket 3.3 20:32:36 10° NNW 20:37:42 33° NE 20:42:48 10° ESE
Cosmos 1437 Rocket 3.0 20:36:40 11° SSE 20:39:52 41° E 20:43:17 10° NNE
USA 290 4.3 20:39:46 12° ESE 20:39:56 12° E 20:41:12 10° ENE
SL-08 R/B 3.6 20:39:26 10° NNE 20:44:16 75° WNW 20:48:59 10° SSW
DEBRIS 3.3 20:43:18 10° WSW 20:46:19 76° S 20:55:26 10° E
Cosmos 1626 Rocket 3.6 20:42:23 10° NNW 20:46:46 84° W 20:51:00 11° S
Cosmos 2098 Rocket 3.9 20:44:22 14° SSE 20:47:50 33° E 20:51:35 10° NNE
NOSS 3-3 (A) 3.8 20:43:53 10° SW 20:49:08 89° NW 20:55:31 10° NE
Terra 3.5 20:47:58 10° SSW 20:52:06 30° W 20:56:15 10° NNW
Cosmos 2151 2.8 20:50:38 10° N 20:54:47 87° E 20:58:09 15° S
Cosmos 2322 Rocket 2.4 20:50:43 10° NNW 20:56:22 64° ENE 21:00:46 17° SE
Cosmos 1486 Rocket 4.2 20:51:19 10° NNW 20:56:34 66° ENE 21:00:35 17° SE
IRS-1C Rocket 4.2 20:53:40 15° SSE 20:58:01 70° ENE 21:03:17 10° N
Cosmos 1464 Rocket 4.4 20:53:51 14° SSE 20:58:47 44° E 21:04:36 10° NNE
Cosmos 909 Rocket 4.1 20:53:15 10° SW 20:59:33 85° NW 21:06:10 10° NE
Cosmos 2061 Rocket 4.3 20:53:32 10° SSW 20:59:45 73° WNW 21:06:05 10° N
Cosmos 2082 Rocket 3.0 20:55:37 10° SW 21:01:13 56° NW 21:06:51 10° NNE
USA 306 3.1 21:00:12 10° W 21:02:54 34° NNW 21:04:43 10° NE
Meteor 2-10 4.5 20:59:25 10° N 21:05:06 58° ENE 21:09:14 18° SSE
Cosmos 1606 Rocket 4.2 21:03:16 19° SSE 21:05:46 36° E 21:09:44 10° NNE
CZ-4B R/B 2.6 21:09:42 19° S 21:11:58 68° WSW 21:15:26 10° NNW
USA 186 3.5 21:11:09 10° SSW 21:13:23 22° W 21:15:40 10° NW
Cosmos 1726 Rocket 4.3 21:12:34 22° SE 21:14:16 30° E 21:17:50 10° NNE
Cosmos 540 Rocket 4.4 21:13:16 20° SE 21:15:40 29° E 21:20:05 10° NE
Okean O Rocket 3.0 21:11:51 10° SSW 21:15:43 33° W 21:19:37 10° NNW
Cosmos 1805 2.7 21:17:30 10° N 21:20:47 89° ENE 21:22:21 28° S
NOSS 3-3 (C) 4.1 21:15:47 10° SW 21:21:07 71° NW 21:27:38 10° NE
Cosmos 2278 3.9 21:16:42 10° NNW 21:22:23 67° WSW 21:26:23 20° SSE
Meteor 1-5 Rocket 4.3 21:19:24 10° NNW 21:25:11 86° ENE 21:29:22 20° SSE
COSMOS 2428 4.2 21:20:32 10° NNW 21:25:27 29° NE 21:30:13 11° ESE
SL-16 R/B 2.8 21:21:22 10° NW 21:26:50 50° WSW 21:30:55 17° S
Cosmos 1544 Rocket 4.3 21:23:21 10° SSW 21:27:35 50° WNW 21:31:48 10° N
Okean 1-7 Rocket 3.6 21:23:25 10° N 21:27:54 84° E 21:30:35 24° SSE
CZ-2C R/B 1.9 21:27:14 36° S 21:28:11 75° W 21:30:58 10° NNW
NOSS 3-4 (A) 3.9 21:26:39 10° NW 21:33:18 72° SW 21:38:39 22° SSE
NOSS 3-4 (C) 3.9 21:27:16 10° NW 21:33:57 73° SW 21:39:18 22° SSE
Cosmos-2242 4.0 21:34:03 25° ESE 21:35:16 29° E 21:38:51 10° NNE
Cosmos 2034 Rocket 4.2 21:32:54 21° SSE 21:37:08 57° E 21:43:19 10° NNE
Cosmos 1933 4.3 21:37:09 10° SSW 21:40:46 42° WNW 21:44:26 10° N
Ariane Rocket 3.5 21:38:07 18° S 21:41:42 54° W 21:46:42 10° NNW
COSMOS 2406 4.0 21:36:44 10° SW 21:42:22 55° NW 21:48:02 10° NNE
Nadezhda 4 Rocket 4.1 21:45:56 10° NNW 21:52:03 72° W 21:56:13 22° S
Cosmos 2333 Rocket 3.3 21:49:33 10° NW 21:54:41 35° WSW 21:58:17 18° SSW
Helios 1B rocket 2.9 21:55:11 30° ESE 21:56:09 37° ENE 21:59:25 10° N
Cosmos 1763 Rocket 3.5 21:53:12 22° S 21:56:37 69° ESE 22:01:52 10° NNE
Cosmos 1825 Rocket 3.9 21:52:47 10° NNW 21:57:04 60° W 21:59:17 27° SSW
Cosmos 1470 4.0 21:55:01 10° NNE 21:57:36 21° ENE 21:58:12 20° E
Okean 1 3.0 21:56:18 33° SSW 21:57:47 78° W 22:01:24 10° N
Cosmos 1536 3.2 21:54:41 10° N 21:58:14 44° ENE 21:59:12 35° ESE
Cosmos 1898 Rocket 4.4 21:54:14 10° NNW 21:59:06 39° ENE 22:02:03 21° ESE
Cosmos 1707 2.5 21:59:51 41° E 21:59:51 41° E 22:02:21 10° NNE
Cosmos 2221 4.2 21:59:07 17° E 21:59:46 18° E 22:02:36 10° NE
Cosmos 1634 Rocket 4.3 21:57:46 27° SSE 22:00:50 49° E 22:06:47 10° NNE
Cosmos 1833 4.1 21:57:58 19° SSW 22:02:03 71° ESE 22:07:41 10° NNE
Cosmos 1461 4.2 21:58:50 10° WSW 22:02:17 36° NW 22:05:43 10° NNE
Cosmos 2297 Rocket 4.1 22:01:44 12° ESE 22:02:25 12° E 22:04:31 10° ENE
Cosmos 1953 Rocket 3.4 21:58:49 10° N 22:03:12 87° W 22:04:56 36° S
Cosmos 44 3.5 21:58:44 10° NW 22:04:11 81° NE 22:06:56 29° SE
Cosmos 990 Rocket 4.0 21:59:16 10° NNW 22:04:26 76° WSW 22:06:54 32° S
Cosmos 2360 Rocket 2.8 22:03:04 10° NW 22:08:27 46° WSW 22:11:23 25° SSW
Cosmos 2322 4.1 22:04:56 10° NNW 22:10:32 55° NE 22:13:47 25° ESE
ISS -3.8 22:10:02 10° WNW 22:13:24 85° N 22:14:19 45° E
USA 290 3.0 22:12:10 25° SW 22:13:38 48° WNW 22:16:42 10° NNE
BREEZE-M DEB (TANK) 3.2 22:12:21 10° W 22:13:11 19° W 22:13:11 19° W
Cosmos 2026 Rocket 4.0 22:08:17 10° N 22:14:43 83° W 22:18:17 28° S
Cosmos 2058 Rocket 3.0 22:14:25 40° SSE 22:15:49 65° E 22:20:07 10° NNE
Helios 1A 2.7 22:17:26 10° NNE 22:21:22 81° ESE 22:22:30 45° S
Cosmos 2219 Rocket 2.5 22:16:24 10° NW 22:21:56 56° WSW 22:24:29 31° S
Cosmos 1975 3.6 22:21:20 10° N 22:24:44 34° ENE 22:25:24 32° E
KORONAS-FOTON 3.4 22:25:06 60° ESE 22:25:18 62° E 22:28:41 10° NNE
Cosmos 1076 Rocket 4.4 22:22:20 10° NNW 22:26:20 40° W 22:28:03 27° SW
Cosmos 841 Rocket 4.2 22:28:15 31° SE 22:29:25 35° ESE 22:34:09 10° NE
USA 306 4.5 22:28:32 10° NW 22:28:32 10° NW 22:28:32 10° NW
RESURS DK-1 2.6 22:27:30 10° NNW 22:31:27 60° NE 22:32:35 41° ESE
ARIANE 5 R/B 3.0 22:32:16 37° SE 22:33:45 56° ENE 22:38:08 10° N
ALOS 2 3.2 22:33:58 34° ESE 22:35:25 48° ENE 22:39:40 10° N
Cosmos 2322 Rocket 3.7 22:35:24 10° NW 22:39:58 25° WSW 22:42:34 18° SW
Cosmos 1766 3.8 22:42:33 10° NNW 22:45:31 34° W 22:45:46 34° WSW
Cosmos 372 Rocket 3.9 22:41:03 10° NNW 22:46:10 74° WSW 22:47:53 42° S
SL-16 R/B 4.5 22:42:05 10° N 22:46:12 20° NE 22:50:19 10° E
Cosmos 1271 Rocket 2.3 22:46:13 67° E 22:46:13 67° E 22:49:36 10° NNE
Cosmos 1842 2.6 22:47:39 82° NNE 22:47:39 82° NNE 22:50:43 10° N
Lacrosse 4 Rocket 3.7 22:51:57 12° E 22:51:57 12° E 22:52:43 10° E
Spot 4 3.8 22:51:57 44° SSE 22:53:30 85° ENE 22:58:19 10° NNW
Meteor 2-9 Rocket 4.1 22:48:25 10° NNW 22:53:50 84° ENE 22:55:56 40° SSE
PSLV R/B 4.1 22:51:12 10° NNE 22:55:19 44° E 22:55:59 40° SE
Cosmos 540 Rocket 4.3 22:52:54 15° SW 22:56:57 47° WNW 23:01:56 10° NNE
Cosmos 2237 Rocket 2.8 22:53:26 10° NNW 22:58:59 51° NE 23:02:17 24° ESE
Aureole 1 Rocket 4.4 22:54:22 10° NW 22:59:57 50° WSW 23:02:46 31° SSW
BREEZE-M DEB (TANK) 4.2 22:44:16 10° WSW 23:01:02 74° SSE 23:05:02 10° ENE
CZ-2C R/B 3.6 22:58:58 23° ESE 23:01:36 38° ENE 23:06:23 10° N
Cosmos 1980 4.1 22:57:35 10° NNW 23:03:11 58° NE 23:06:13 27° SE
ARGOS Delta rocket 4.1 22:59:36 10° NNE 23:04:46 69° E 23:06:31 42° S
Cosmos 1937 Rocket 3.4 23:02:37 10° NNW 23:07:47 86° WSW 23:09:26 44° SSE
Cosmos 2142 Rocket 4.5 23:05:16 36° S 23:07:59 77° E 23:14:13 10° NNE
Cosmos 2180 Rocket 4.5 23:06:36 36° S 23:09:18 76° E 23:15:38 10° NNE
COSMOS 2428 2.7 23:04:31 10° NNW 23:10:11 69° WSW 23:12:10 41° S
Cosmos 2227 Rocket 3.8 23:11:04 18° ESE 23:12:12 19° E 23:15:59 10° ENE
Cosmos-2242 4.4 23:10:18 20° WSW 23:12:13 29° WNW 23:15:52 10° N
NOSS 0 Rocket 3.8 23:06:37 10° NNW 23:12:49 83° WSW 23:15:26 37° SSE
Cosmos 468 Rocket 4.4 23:10:30 25° SW 23:13:33 59° WNW 23:18:45 10° NNE
Meteor 1-11 Rocket 3.7 23:07:56 10° N 23:13:39 81° ENE 23:15:45 40° SSE
Meteor 1-10 Rocket 4.3 23:17:23 39° S 23:19:38 73° E 23:25:35 10° NNE
MetOp-A 4.0 23:18:10 41° SE 23:19:48 68° ENE 23:24:26 10° N
Cosmos 2263 Rocket 4.1 23:20:54 13° ESE 23:22:12 14° E 23:24:55 10° ENE
Cosmos 1812 Rocket 3.5 23:25:18 55° SSW 23:26:15 87° W 23:30:43 10° N
Cosmos 1238 Rocket 3.6 23:25:54 37° ESE 23:26:25 38° E 23:30:27 10° NNE
Helios 1B rocket 4.0 23:29:08 18° W 23:29:16 18° W 23:31:47 10° NW
Cosmos 1470 3.8 23:28:41 10° NNW 23:31:24 26° W 23:31:24 26° W
USA 234 3.3 23:25:09 10° ENE 23:31:35 56° SE 23:34:29 33° SSW
SeaSat 1 3.4 23:28:37 18° ESE 23:31:58 42° NE 23:36:35 10° NNW
CZ-2C R/B 3.4 23:27:58 10° NNE 23:33:43 63° E 23:35:48 39° SSE
Meteor 1-27 Rocket 3.9 23:32:34 39° SSE 23:34:40 64° E 23:40:20 10° NNE
ACS3 Solar Sail 3.1 23:29:46 10° NNE 23:34:43 26° E 23:37:20 20° SE
Helios 1B 4.5 23:30:35 10° NNE 23:34:51 80° WNW 23:35:46 54° SSW
NOSS 8 (E) 4.5 23:33:13 10° NW 23:35:47 62° N 23:35:47 62° N
Cosmos 2221 2.9 23:35:23 41° WSW 23:36:24 51° WNW 23:40:30 10° N
ATLAS 2AS CENTAUR R/B 4.3 23:30:51 10° NW 23:36:57 33° NNE 23:43:02 10° E
BlueWalker 3 4.0 23:41:18 15° E 23:41:18 15° E 23:42:05 10° E
Meteor 2-20 Rocket 4.5 23:37:28 38° SSE 23:39:32 60° E 23:45:09 10° NNE
Cosmos 1898 Rocket 4.3 23:36:21 10° NW 23:41:03 36° WSW 23:42:14 32° SW
Cosmos 2297 Rocket 2.2 23:43:29 42° S 23:45:22 70° ESE 23:51:01 10° NNE
Meteor 2-20 4.4 23:46:32 38° SSW 23:49:04 86° W 23:55:11 10° N
ISS -1.1 23:46:59 10° W 23:47:15 12° W 23:47:15 12° W
Landsat 5 4.0 23:47:18 10° NNE 23:51:12 42° E 23:51:40 40° ESE
Cosmos 1842 Rocket 4.2 23:53:33 38° SE 23:54:29 44° E 23:58:41 10° NNE
GP-B 3.3 23:50:45 10° N 23:55:03 58° W 23:56:01 46° SW
